PHOENIX (45258 NORAD) Tracking and Keplerian Element Data

This shows tracking and keplerian element data for the satellite.

Feedback or suggestion? Click here.




ElementValue
Catalog45258
NamePHOENIX
Epoch Orbit13175
Epoch Day163.82960323
Epoch Year2022
RAAN294.3376
Inclination51.6194
Eccentricity0.0009579
Argument of Perigee296.652
Mean Anonmoly63.3527
Mean Motion16.45855778
Decay Rate0.11428466
L11 45258U 98067RB 22163.82960323 .11428466 12633-4 25365-3 0 9996
L22 45258 51.6194 294.3376 0009579 296.6520 63.3527 16.45855778131755



Live tracking and technical data element details for PHOENIX (NORAD 45258). PHOENIX can be tracked NOW for your location showing map with azimuth and elevation plus other details from your city location.







IsCatalogInMostPopularTable: catalog: 45258, numindb: 246
Update: records affected: 1



GetName: 45258 PHOENIX

Hit Count: updated at: Mon, 28 Nov 2022 04:52:11 GMT